Location: *
(29.1167°S, 130.0000°E)
Time: 02:28:49
(UTC+00:00)

USA 229 - Pass Details

Date: 21 July 2019
Orbit: 1002 x 1210 km, 63.4° (Epoch: 18 August)

Event Time Altitude Azimuth Distance (km) Brightness Sun altitude
Rises 09:56:09 0° 213° (SSW) 3,857 6.9 -16.0°
Reaches altitude 10° 09:58:51 10° 215° (SW) 2,871 6.2 -16.6°
Maximum altitude 10:05:30 65° 295° (WNW) 1,115 4.0 -18.0°
Drops below altitude 10° 10:11:54 10° 15° (NNE) 2,768 5.8 -19.4°
Sets 10:14:29 0° 18° (NNE) 3,709 6.5 -19.9°
